loading
|

ONEWEB-0050, 45453

Orbit data source: Space-Track

ONEWEB-0050, 45453 is a payload satellite owned by One Web (UK) in LEO that was launched on Sat, 21 Mar 2020 UTC via a SOYUZ-2-1B launch vehicle from the Tyuratam Missile And Space Complex (TTMTR). Payloads include a variety of satellites, spacecraft, and rockets equipped with specific instruments for various scientific and technological missions. These include communications satellites like Starlink; space stations such as the ISS; scientific satellites like the Hubble; Earth observation satellites from companies like Planet Labs, Umbra, and HawkEye 360; GPS; miniature CubeSats for education and research; and military/defense satellites.

Loading next visibility...
Loading greatness...
ONEWEB-0050 details
Identifier
45453, 2020-020AF
Orbit
LEO
Last TLE update9 hours ago
Origin
Flag of UKOne Web (UK)
ManufacturerOne Web
MissionPartially operational Commercial Communications
Bus & MotorARROW, Unknown motor
Mass148 kg wet, ~140 kg dry
Launch date (UTC)
2020-03-21 (5 years ago)
Launch vehicle
SOYUZ-2-1B
Launch site
Tyuratam Missile And Space Complex (TTMTR)
Object type
Payload
Rocket body
Debris
Shape & HBRTrap Box + 2 Pan, 5 m
Radar Cross Section2.957 m², Large (>1 m²)

Expand to show TLE details & history

TLE from 9 hours ago
0 ONEWEB-0050
1 45453U 20020AF  24279.51326674  .00017869  00000-0  17848-2 0  9994
2 45453  88.0092   0.1993 0004623  72.3599 287.8135 14.91405546248054
Epoch: 2024-10-05T12:19Z
Definitive object data (Epoch: 2024-10-05T12:19:06.246Z)
Latitude0.00002°
Longitude160.75478°
Altitude595.716 km
Speed7.562 km/s
True Right ascension00h 00m 47s
True Declination0° 00' 00"
Sunlit
Object was in full shadow at TLE epoch
Predictive object data (real-time)
Latitude-75.66734°
Longitude152.8801°
Altitude623.705 km
Speed7.544 km/s
Apparent Right ascension02h 37m 52s
Apparent Declination-61° 22' 30"
Sunlit
Object is in daylight
Predictive observer data (real-time)
Local Sidereal Time15:38:11
Azimuth161.681° S
Elevation-66.64°
Doppler factor1
Orbital elements
Apogee593.632 km
Perigee587.189 km
Semi-major axis6,968.547 km
Eccentricity0.0004623
Inclination88.0092°
RAAN0.1993°
Arg. of periapsis72.3599°
True anomaly287.76306°
Mean anomaly287.8135°
Eccentric anomaly287.78828°
Mean motion3.73104 °/min
BSTAR0.0017848
Period96.49 mins
No data available

ONEWEB-0050 Visibility forecast

Observer location: 39.9160978°, -105.1181434

ONEWEB-0050 is not visible in the next 10 days
Span
Click to sort rows by Start time (UTC) header in descending order
Start Az.
Max El. time (UTC)
Max El. Az.
Max El.
End time (UTC)
End Az.